TimeAKDT,TemperatureF,Dew PointF,Humidity,Sea Level PressureIn,VisibilityMPH,Wind Direction,Wind SpeedMPH,Gust SpeedMPH,PrecipitationIn,Events,Conditions,WindDirDegrees,DateUTC
12:16 AM,26.6,24.8,93,29.78,10.0,ENE,3.5,-,N/A,,Clear,70,2013-10-24 08:16:00
12:36 AM,26.6,23.0,86,29.77,10.0,Calm,Calm,-,N/A,,Clear,0,2013-10-24 08:36:00
12:56 AM,26.6,21.2,80,29.79,10.0,Calm,Calm,-,N/A,,Clear,0,2013-10-24 08:56:00
1:16 AM,28.4,23.0,80,29.78,10.0,East,3.5,-,N/A,,Clear,80,2013-10-24 09:16:00
1:36 AM,26.6,21.2,80,29.79,10.0,Calm,Calm,-,N/A,,Clear,0,2013-10-24 09:36:00
1:56 AM,26.6,21.2,80,29.80,10.0,ESE,4.6,-,N/A,,Clear,120,2013-10-24 09:56:00
2:16 AM,26.6,21.2,80,29.80,10.0,Calm,Calm,-,N/A,,Clear,0,2013-10-24 10:16:00
2:36 AM,26.6,21.2,80,29.80,10.0,East,4.6,-,N/A,,Clear,90,2013-10-24 10:36:00
2:56 AM,26.6,23.0,86,29.80,10.0,East,3.5,-,N/A,,Clear,100,2013-10-24 10:56:00
3:16 AM,26.6,21.2,80,29.80,10.0,Calm,Calm,-,N/A,,Clear,0,2013-10-24 11:16:00
3:36 AM,26.6,21.2,80,29.80,10.0,Calm,Calm,-,N/A,,Clear,0,2013-10-24 11:36:00
3:56 AM,26.6,23.0,86,29.79,10.0,Calm,Calm,-,N/A,,Clear,0,2013-10-24 11:56:00
4:16 AM,26.6,21.2,80,29.79,10.0,Calm,Calm,-,N/A,,Clear,0,2013-10-24 12:16:00
4:36 AM,28.4,23.0,80,29.79,10.0,Calm,Calm,-,N/A,,Clear,0,2013-10-24 12:36:00
4:56 AM,28.4,23.0,80,29.79,10.0,Calm,Calm,-,N/A,,Scattered Clouds,0,2013-10-24 12:56:00
5:16 AM,28.4,23.0,80,29.79,10.0,East,3.5,-,N/A,,Mostly Cloudy,80,2013-10-24 13:16:00
5:36 AM,28.4,23.0,80,29.78,10.0,Calm,Calm,-,N/A,,Mostly Cloudy,0,2013-10-24 13:36:00
5:56 AM,28.4,23.0,80,29.79,10.0,Calm,Calm,-,N/A,,Mostly Cloudy,0,2013-10-24 13:56:00
6:16 AM,28.4,24.8,86,29.78,10.0,ENE,3.5,-,N/A,,Overcast,70,2013-10-24 14:16:00
6:36 AM,28.4,24.8,86,29.78,10.0,Calm,Calm,-,N/A,,Overcast,0,2013-10-24 14:36:00
6:56 AM,28.4,24.8,86,29.77,10.0,Calm,Calm,-,N/A,,Overcast,0,2013-10-24 14:56:00
7:16 AM,28.4,24.8,86,29.75,10.0,Calm,Calm,-,N/A,,Overcast,0,2013-10-24 15:16:00
7:36 AM,30.2,24.8,80,29.74,10.0,Calm,Calm,-,N/A,,Overcast,0,2013-10-24 15:36:00
7:56 AM,32.0,26.6,80,29.73,10.0,NE,5.8,-,N/A,,Overcast,40,2013-10-24 15:56:00
8:16 AM,32.0,26.6,80,29.73,10.0,NE,4.6,-,N/A,,Overcast,40,2013-10-24 16:16:00
8:36 AM,32.0,26.6,80,29.74,10.0,NE,5.8,-,N/A,,Overcast,50,2013-10-24 16:36:00
8:56 AM,33.8,26.6,75,29.75,10.0,NNE,3.5,-,N/A,,Overcast,20,2013-10-24 16:56:00
9:16 AM,33.8,28.4,81,29.73,10.0,NNE,3.5,-,N/A,,Overcast,20,2013-10-24 17:16:00
9:36 AM,33.8,28.4,81,29.71,10.0,North,5.8,-,N/A,,Overcast,10,2013-10-24 17:36:00
9:56 AM,33.8,28.4,81,29.70,10.0,ENE,4.6,-,N/A,,Overcast,60,2013-10-24 17:56:00
10:16 AM,35.6,28.4,75,29.68,10.0,Calm,Calm,-,N/A,,Overcast,0,2013-10-24 18:16:00
10:36 AM,35.6,28.4,75,29.69,10.0,North,3.5,-,N/A,,Overcast,350,2013-10-24 18:36:00
10:56 AM,35.6,28.4,75,29.69,10.0,NNW,3.5,-,N/A,,Overcast,340,2013-10-24 18:56:00
11:16 AM,41.0,33.8,76,29.68,10.0,ENE,5.8,-,N/A,,Overcast,60,2013-10-24 19:16:00
11:36 AM,42.8,30.2,61,29.68,10.0,NW,3.5,-,N/A,,Overcast,320,2013-10-24 19:36:00
11:56 AM,37.4,30.2,75,29.67,10.0,West,6.9,-,N/A,,Overcast,280,2013-10-24 19:56:00
12:16 PM,42.8,33.8,70,29.67,10.0,East,12.7,19.6,N/A,,Overcast,90,2013-10-24 20:16:00
12:36 PM,44.6,33.8,66,29.67,10.0,East,13.8,-,N/A,,Overcast,90,2013-10-24 20:36:00
12:56 PM,44.6,33.8,66,29.66,10.0,East,18.4,25.3,N/A,,Overcast,80,2013-10-24 20:56:00
1:16 PM,42.8,33.8,70,29.65,10.0,East,16.1,25.3,N/A,,Overcast,90,2013-10-24 21:16:00
1:36 PM,42.8,33.8,70,29.66,10.0,East,16.1,23.0,N/A,,Overcast,90,2013-10-24 21:36:00
1:56 PM,42.8,33.8,70,29.66,10.0,East,15.0,19.6,N/A,,Overcast,80,2013-10-24 21:56:00
2:16 PM,42.8,33.8,70,29.65,10.0,East,16.1,21.9,N/A,,Overcast,80,2013-10-24 22:16:00
2:36 PM,42.8,33.8,70,29.63,10.0,East,18.4,25.3,N/A,,Overcast,80,2013-10-24 22:36:00
2:56 PM,42.8,33.8,70,29.63,10.0,East,13.8,20.7,N/A,,Overcast,80,2013-10-24 22:56:00
3:16 PM,44.6,33.8,66,29.63,10.0,ENE,11.5,21.9,N/A,,Overcast,60,2013-10-24 23:16:00
3:36 PM,44.6,33.8,66,29.61,10.0,ENE,13.8,25.3,N/A,,Overcast,60,2013-10-24 23:36:00
3:56 PM,44.6,33.8,66,29.61,10.0,ENE,12.7,21.9,N/A,,Overcast,60,2013-10-24 23:56:00
4:16 PM,44.6,33.8,66,29.59,10.0,ENE,13.8,-,N/A,,Overcast,70,2013-10-25 00:16:00
4:36 PM,44.6,33.8,66,29.58,10.0,ENE,15.0,21.9,N/A,,Overcast,70,2013-10-25 00:36:00
4:56 PM,44.6,33.8,66,29.59,10.0,ENE,13.8,23.0,N/A,,Overcast,70,2013-10-25 00:56:00
5:16 PM,44.6,33.8,66,29.59,10.0,East,11.5,20.7,N/A,,Overcast,80,2013-10-25 01:16:00
5:36 PM,44.6,33.8,66,29.58,10.0,East,13.8,-,N/A,,Overcast,80,2013-10-25 01:36:00
5:56 PM,44.6,33.8,66,29.58,10.0,ENE,13.8,-,N/A,,Overcast,70,2013-10-25 01:56:00
6:16 PM,44.6,33.8,66,29.58,10.0,East,13.8,20.7,N/A,,Overcast,80,2013-10-25 02:16:00
6:36 PM,44.6,33.8,66,29.59,10.0,East,15.0,25.3,N/A,,Overcast,80,2013-10-25 02:36:00
6:56 PM,44.6,33.8,66,29.59,10.0,East,18.4,27.6,N/A,,Overcast,90,2013-10-25 02:56:00
7:16 PM,44.6,33.8,66,29.59,10.0,East,17.3,23.0,N/A,,Overcast,80,2013-10-25 03:16:00
7:36 PM,44.6,33.8,66,29.59,10.0,East,17.3,-,N/A,,Mostly Cloudy,80,2013-10-25 03:36:00
7:56 PM,44.6,33.8,66,29.59,10.0,East,16.1,21.9,N/A,,Overcast,90,2013-10-25 03:56:00
8:16 PM,44.6,33.8,66,29.59,10.0,East,15.0,-,N/A,,Overcast,100,2013-10-25 04:16:00
8:36 PM,44.6,33.8,66,29.60,10.0,ESE,11.5,17.3,N/A,,Overcast,120,2013-10-25 04:36:00
8:56 PM,44.6,33.8,66,29.61,10.0,ESE,9.2,-,N/A,,Overcast,120,2013-10-25 04:56:00
9:16 PM,44.6,33.8,66,29.63,10.0,ESE,6.9,-,N/A,,Overcast,110,2013-10-25 05:16:00
9:36 PM,42.8,35.6,76,29.63,10.0,ENE,8.1,-,N/A,,Overcast,60,2013-10-25 05:36:00
9:56 PM,42.8,33.8,70,29.64,10.0,NE,4.6,-,N/A,,Overcast,50,2013-10-25 05:56:00
10:16 PM,42.8,33.8,70,29.65,10.0,SSE,3.5,-,N/A,,Overcast,160,2013-10-25 06:16:00
10:36 PM,42.8,33.8,70,29.65,10.0,ESE,5.8,-,N/A,,Overcast,110,2013-10-25 06:36:00
10:56 PM,42.8,33.8,70,29.66,10.0,Calm,Calm,-,N/A,,Overcast,0,2013-10-25 06:56:00
11:16 PM,42.8,33.8,70,29.67,10.0,Calm,Calm,-,N/A,,Overcast,0,2013-10-25 07:16:00
11:36 PM,41.0,33.8,76,29.67,10.0,West,6.9,-,N/A,,Overcast,270,2013-10-25 07:36:00
11:56 PM,42.8,33.8,70,29.68,10.0,Calm,Calm,-,N/A,,Overcast,0,2013-10-25 07:56:00